Location: Prague
(50.0830°N, 14.4670°E)
Time: 14:55:31
(UTC+01:00)

BlueWalker 3 - Pass Details

Date: 04 December 2022
Orbit: 499 x 517 km, 53.2° (Epoch: 01 February)

Event Time Altitude Azimuth Distance (km) Brightness Sun altitude
Rises 18:03:39 0° 286° (WNW) 2,629 6.7 -18.7°
Reaches altitude 10° 18:05:53 10° 290° (WNW) 1,738 5.5 -19.0°
Maximum altitude 18:09:47 60° 11° (NNE) 586 2.0 -19.6°
Enters shadow 18:10:12 56° 44° (NE) 613 2.0 -19.7°
